Erie, CO

8:46 AM MDT on March 30, 2017 (GMT -0600)
Erie Municipal Airport

Weather History for KEIK - August, 2013

Change the Weather History Date:

Wednesday, August 7, 2013

  Actual Average (KBJC) Record (KBJC)
Temperature  
Mean Temperature 68 °F -  
Max Temperature 77 °F 83 °F 95 °F (2000)
Min Temperature 59 °F 59 °F 51 °F (1990)
Cooling Degree Days 3    
Growing Degree Days 18 (Base 50)    
Moisture  
Dew Point 53 °F    
Average Humidity 66    
Maximum Humidity 97    
Minimum Humidity 37    
Precipitation  
Precipitation 0.00 in - - ()
Sea Level Pressure  
Sea Level Pressure 30.11 in    
Wind  
Wind Speed 4 mph (South)    
Max Wind Speed 17 mph    
Max Gust Speed 22 mph    
Visibility 10 miles    
Events Rain    
Averages and records for this station are not official NWS values.
T = Trace of Precipitation, MM = Missing Value Source: NWS Daily Summary

Daily Weather History Graph

Daily Weather History Graph

Search for Another Location

Airport or City:

Trip Planner

Search our weather history database for the weather conditions in past years. The results will help you decide how hot, cold, wet, or windy it might be!

Date:

Astronomy

Aug. 07, 2013 Rise Set
Actual Time 6:04 AM MDT 8:06 PM MDT
Civil Twilight 5:34 AM MDT 8:36 PM MDT
Nautical Twilight 4:58 AM MDT 9:12 PM MDT
Astronomical Twilight 4:18 AM MDT 9:51 PM MDT
Moon 6:55 AM MDT (8/7) 8:15 PM MDT (8/7)
Length of Visible Light 15h 01m
Length of Day
14h 02m
New Moon, 1% of the Moon is Illuminated
Aug 7
New Moon
Aug 14
First Quarter
Aug 20
Full
Aug 28
Last Quarter
Sep 5
New

Hourly Weather History & Observations

Time (MDT) Temp. Dew Point Humidity Pressure Visibility Wind Dir Wind Speed Gust Speed Precip Events Conditions
12:15 AM 62.8 °F 50.0 °F 63% 30.09 in 10.0 mi NNW 3.5 mph - N/A   Clear
12:35 AM 61.5 °F 50.2 °F 66% 30.10 in 10.0 mi Calm Calm - N/A   Clear
12:55 AM 61.0 °F 50.4 °F 68% 30.11 in 10.0 mi West 3.5 mph - N/A   Clear
1:15 AM 60.8 °F 50.5 °F 69% 30.11 in 10.0 mi WNW 5.8 mph - N/A   Clear
1:35 AM 61.0 °F 50.0 °F 67% 30.11 in 10.0 mi NW 4.6 mph - N/A   Clear
1:55 AM 60.1 °F 50.7 °F 71% 30.12 in 10.0 mi Calm Calm - N/A   Clear
2:15 AM 60.3 °F 51.1 °F 72% 30.12 in 10.0 mi Calm Calm - N/A   Clear
2:35 AM 62.2 °F 51.3 °F 67% 30.13 in 10.0 mi NW 5.8 mph - N/A   Clear
2:55 AM 61.7 °F 52.0 °F 70% 30.13 in 10.0 mi Calm Calm - N/A   Clear
3:15 AM 61.9 °F 51.8 °F 69% 30.12 in 10.0 mi NW 3.5 mph - N/A   Clear
3:35 AM 61.7 °F 52.7 °F 72% 30.11 in 10.0 mi Calm Calm - N/A   Clear
3:55 AM 61.7 °F 52.9 °F 73% 30.11 in 10.0 mi Calm Calm - N/A   Clear
4:15 AM 61.3 °F 52.9 °F 74% 30.11 in 10.0 mi Calm Calm - N/A   Clear
4:35 AM 60.8 °F 54.1 °F 79% 30.12 in 10.0 mi Calm Calm - N/A   Clear
4:55 AM 61.0 °F 54.5 °F 79% 30.11 in 10.0 mi Calm Calm - N/A   Clear
5:15 AM 60.4 °F 54.7 °F 81% 30.11 in 10.0 mi NW 4.6 mph - N/A   Clear
5:35 AM 60.6 °F 54.7 °F 81% 30.11 in 10.0 mi WNW 4.6 mph - N/A   Clear
5:55 AM 60.1 °F 54.7 °F 82% 30.12 in 10.0 mi NNW 3.5 mph - N/A   Clear
6:15 AM 60.1 °F 54.9 °F 83% 30.13 in 10.0 mi NE 3.5 mph - N/A   Clear
6:35 AM 60.8 °F 54.5 °F 80% 30.14 in 10.0 mi Calm Calm - N/A   Scattered Clouds
6:55 AM 60.4 °F 55.2 °F 83% 30.13 in 10.0 mi Calm Calm - N/A   Mostly Cloudy
7:15 AM 60.3 °F 55.8 °F 85% 30.13 in 10.0 mi NNW 4.6 mph - N/A   Mostly Cloudy
7:35 AM 61.0 °F 55.6 °F 82% 30.15 in 10.0 mi Calm Calm - N/A Rain Light Rain
7:55 AM 61.7 °F 55.4 °F 80% 30.15 in 10.0 mi Calm Calm - N/A   Overcast
8:15 AM 62.6 °F 55.6 °F 78% 30.17 in 10.0 mi Calm Calm - N/A   Mostly Cloudy
8:35 AM 63.1 °F 56.3 °F 78% 30.16 in 10.0 mi NNW 3.5 mph - N/A   Mostly Cloudy
8:55 AM 63.5 °F 56.5 °F 78% 30.17 in 10.0 mi West 4.6 mph - N/A   Scattered Clouds
9:15 AM 63.5 °F 56.7 °F 78% 30.17 in 10.0 mi West 4.6 mph - N/A   Scattered Clouds
9:35 AM 63.9 °F 56.7 °F 77% 30.16 in 10.0 mi NW 3.5 mph - N/A   Clear
9:55 AM 64.6 °F 56.5 °F 75% 30.17 in 10.0 mi Calm Calm - N/A   Clear
10:15 AM 65.5 °F 56.3 °F 72% 30.17 in 10.0 mi Calm Calm - N/A   Clear
10:35 AM 66.2 °F 56.3 °F 70% 30.17 in 10.0 mi Calm Calm - N/A   Clear
10:55 AM 66.4 °F 56.5 °F 70% 30.17 in 10.0 mi Calm Calm - N/A   Clear
11:15 AM 67.1 °F 57.2 °F 70% 30.16 in 10.0 mi North 3.5 mph - N/A   Scattered Clouds
11:35 AM 67.6 °F 56.7 °F 68% 30.15 in 10.0 mi NW 3.5 mph - N/A   Mostly Cloudy
11:55 AM 69.4 °F 54.5 °F 59% 30.14 in 10.0 mi WSW 4.6 mph - N/A   Overcast
12:15 PM 70.0 °F 53.8 °F 56% 30.14 in 10.0 mi SSW 4.6 mph - N/A   Scattered Clouds
12:35 PM 70.5 °F 52.9 °F 54% 30.14 in 10.0 mi South 4.6 mph - N/A   Scattered Clouds
12:55 PM 71.2 °F 52.7 °F 52% 30.14 in 10.0 mi SSE 5.8 mph - N/A   Mostly Cloudy
1:15 PM 72.5 °F 52.0 °F 48% 30.14 in 10.0 mi SSE 6.9 mph - N/A   Overcast
1:35 PM 72.9 °F 48.0 °F 41% 30.13 in 10.0 mi SSW 6.9 mph - N/A   Overcast
1:55 PM 72.9 °F 46.9 °F 40% 30.13 in 10.0 mi SSW 3.5 mph - N/A   Scattered Clouds
2:15 PM 72.9 °F 48.9 °F 43% 30.13 in 10.0 mi SW 4.6 mph - N/A   Clear
2:35 PM 73.4 °F 47.7 °F 40% 30.13 in 10.0 mi South 5.8 mph - N/A   Scattered Clouds
2:55 PM 73.8 °F 47.7 °F 40% 30.13 in 10.0 mi South 9.2 mph - N/A   Mostly Cloudy
3:15 PM 73.6 °F 47.3 °F 39% 30.13 in 10.0 mi South 10.4 mph - N/A   Scattered Clouds
3:35 PM 73.9 °F 49.5 °F 42% 30.11 in 10.0 mi SSE 10.4 mph - N/A   Clear
3:55 PM 73.4 °F 50.2 °F 44% 30.10 in 10.0 mi SE 12.7 mph - N/A   Scattered Clouds
4:15 PM 74.7 °F 50.5 °F 43% 30.10 in 10.0 mi SSE 9.2 mph - N/A   Mostly Cloudy
4:35 PM 75.7 °F 50.5 °F 41% 30.10 in 10.0 mi SE 11.5 mph 16.1 mph N/A   Mostly Cloudy
4:55 PM 75.6 °F 49.8 °F 40% 30.09 in 10.0 mi SE 17.3 mph 21.9 mph N/A   Scattered Clouds
5:15 PM 74.5 °F 49.3 °F 41% 30.10 in 10.0 mi SE 9.2 mph - N/A   Clear
5:35 PM 75.6 °F 49.1 °F 39% 30.10 in 10.0 mi SSE 4.6 mph - N/A   Clear
5:55 PM 77.2 °F 48.9 °F 37% 30.09 in 10.0 mi South 4.6 mph - N/A   Clear
6:15 PM 74.3 °F 50.7 °F 43% 30.08 in 10.0 mi SE 8.1 mph - N/A   Clear
6:35 PM 73.2 °F 53.6 °F 50% 30.07 in 10.0 mi SSE 11.5 mph - N/A   Clear
6:55 PM 71.8 °F 53.8 °F 53% 30.07 in 10.0 mi SE 13.8 mph 19.6 mph N/A   Clear
7:15 PM 71.6 °F 52.9 °F 52% 30.06 in 10.0 mi SSE 10.4 mph - N/A   Clear
7:35 PM 71.2 °F 52.0 °F 51% 30.06 in 10.0 mi SSE 4.6 mph - N/A   Clear
7:55 PM 70.0 °F 52.7 °F 54% 30.05 in 10.0 mi SSE 3.5 mph - N/A   Clear
8:15 PM 66.9 °F 53.4 °F 62% 30.06 in 10.0 mi Calm Calm - N/A   Clear
8:35 PM 65.1 °F 53.2 °F 65% 30.06 in 10.0 mi Calm Calm - N/A   Clear
8:55 PM 66.6 °F 58.1 °F 74% 30.07 in 10.0 mi ESE 9.2 mph - N/A   Clear
9:15 PM 65.3 °F 58.8 °F 80% 30.07 in 10.0 mi East 9.2 mph - N/A   Clear
9:35 PM 65.3 °F 59.0 °F 80% 30.07 in 10.0 mi ESE 10.4 mph - N/A   Clear
9:55 PM 63.7 °F 59.0 °F 85% 30.07 in 10.0 mi ESE 8.1 mph - N/A   Clear
10:15 PM 61.9 °F 58.3 °F 88% 30.07 in 10.0 mi West 4.6 mph - N/A   Clear
10:35 PM 62.1 °F 58.5 °F 88% 30.07 in 10.0 mi Calm Calm - N/A   Clear
10:55 PM 61.3 °F 58.3 °F 90% 30.07 in 10.0 mi ENE 3.5 mph - N/A   Clear
11:15 PM 60.3 °F 58.1 °F 93% 30.07 in 10.0 mi NNW 3.5 mph - N/A   Clear
11:35 PM 59.2 °F 57.6 °F 94% 30.07 in 10.0 mi Calm Calm - N/A   Clear
11:55 PM 59.0 °F 58.1 °F 97% 30.07 in 10.0 mi NNW 3.5 mph - N/A   Clear